Location: Dannhausen
(51.8650°N, 10.1026°E)
Time: 13:21:07
(UTC+00:00)

Resurs 1-3 - Pass Details

Date: 09 April 2020
Orbit: 630 x 632 km, 97.9° (Epoch: 25 May)

Event Time Altitude Azimuth Distance (km) Brightness Sun altitude
Exits shadow 18:41:31 - 141° (SE) 2,593 6.2 -5.8°
Reaches altitude 10° 18:42:59 10° 135° (SE) 2,013 5.6 -6.0°
Maximum altitude 18:47:04 40° 67° (ENE) 946 4.2 -6.6°
Drops below altitude 10° 18:51:11 10° 358° (N) 2,028 6.5 -7.2°
Sets 18:53:29 0° 351° (N) 2,941 7.5 -7.5°
